"2010-11-28 00:00:00",374701,6.09,321.1,8.18,1.367,13.6,104.0061,9.53,10.58,13.6,0,110.1,13.33,10.31,283.1
"2010-11-28 00:00:30",374702,5.761,316.2,6.199,1.243,12.97,104.0123,9.55,10.61,13.6,0,110.1,13.33,10.33,278.2
"2010-11-28 00:01:00",374703,5.149,318,7.245,1.537,12.02,104.0168,9.56,10.51,13.51,0,110.1,13.33,10.34,280.0
"2010-11-28 00:01:30",374704,4.257,316.8,8.25,1.27,11.18,104.0137,9.55,10.5,13.49,0,110.1,13.33,10.33,278.8
"2010-11-28 00:02:00",374705,3.379,318.9,2.851,0.084,9.11,104.0055,9.53,10.34,13.37,0,110.1,13.36,10.31,280.9
"2010-11-28 00:02:30",374706,3.594,322.4,3.975,0.207,9.08,103.9959,9.5,10.33,13.27,0,110.1,13.36,10.29,284.4
"2010-11-28 00:03:00",374707,3.298,331.2,5.596,0.504,9.86,103.9869,9.48,10.43,13.27,0,110.1,13.36,10.27,293.2
"2010-11-28 00:03:30",374708,5.277,344.6,6.606,1.216,13.25,103.959,9.41,10.48,13.18,0,110.1,13.33,10.19,306.6
"2010-11-28 00:04:00",374709,5.335,346.1,5.075,1.016,14,103.9299,9.33,10.53,13.1,0,110.1,13.33,10.12,308.1
"2010-11-28 00:04:30",374710,4.183,343.3,6.951,1.336,11.75,103.8991,9.26,10.45,12.96,0,110.1,13.33,10.04,305.3
"2010-11-28 00:05:00",374711,3.212,337.5,5.365,0.959,9.68,103.8732,9.19,10.21,12.74,0,110.1,13.33,9.97,299.5
"2010-11-28 00:05:30",374712,4.011,336.5,7.84,1.329,10.21,103.8605,9.16,10.13,12.97,0,110.1,13.33,9.94,298.5
"2010-11-28 00:06:00",374713,3.014,328,2.481,0.164,8.37,103.8605,9.16,10.06,13.07,0,110.1,13.37,9.94,290.0
"2010-11-28 00:06:30",374714,3.464,320.2,3.61,0.217,8.89,103.8582,9.15,10.04,13.26,0,110.1,13.38,9.94,282.2
"2010-11-28 00:07:00",374715,5.004,315,6.076,1.387,11.6,103.8661,9.17,10.12,13.55,0,110.1,13.34,9.96,277.0
"2010-11-28 00:07:30",374716,6.087,316.5,5.459,1.16,13.5,103.8932,9.24,10.33,13.79,0,110.1,13.34,10.03,278.5
"2010-11-28 00:08:00",374717,6.293,312.2,5.213,0.788,14.57,103.9104,9.28,10.45,13.82,0,110.1,13.34,10.07,274.2
"2010-11-28 00:08:30",374718,5.698,309.8,9.03,1.236,13.25,103.9303,9.34,10.42,13.74,0,110.1,13.34,10.12,271.8
"2010-11-28 00:09:00",374719,4.559,308.3,9.55,1.535,11.35,103.9386,9.36,10.26,13.54,0,110.1,13.34,10.14,270.3
"2010-11-28 00:09:30",374720,3.486,300.5,4.554,0.333,8.8,103.9455,9.37,10.18,13.49,0,110.1,13.38,10.16,262.5
"2010-11-28 00:10:00",374721,2.992,301.6,4.548,0.191,8.85,103.9473,9.38,10.2,13.51,0,110.1,13.38,10.16,263.6
"2010-11-28 00:10:30",374722,2.985,306.2,4.525,0.132,9.25,103.9544,9.4,10.19,13.47,0,110.1,13.38,10.18,268.2
"2010-11-28 00:11:00",374723,4.044,319.8,7.872,1.346,11.78,103.9523,9.39,10.42,13.7,0,110.1,13.35,10.18,281.8
"2010-11-28 00:11:30",374724,4.622,327.3,7.028,1.065,13.29,103.9369,9.35,10.43,13.64,0,110.1,13.35,10.14,289.3
"2010-11-28 00:12:00",374725,4.549,328.3,5.793,0.99,13.89,103.918,9.3,10.46,13.58,0,110.1,13.35,10.09,290.3
"2010-11-28 00:12:30",374726,3.226,324.8,5.923,1.297,10.82,103.8949,9.25,10.24,13.27,0,110.1,13.35,10.03,286.8
"2010-11-28 00:13:00",374727,2.087,322.9,1.634,0.035,8.42,103.8702,9.18,10.16,13.17,0,110.1,13.38,9.97,284.9
"2010-11-28 00:13:30",374728,2.224,326.9,1.051,0.09,8.17,103.8584,9.15,10.02,13.16,0,110.1,13.38,9.94,288.9
"2010-11-28 00:14:00",374729,2.274,326,1.576,0.085,8.36,103.8448,9.12,10.01,13.36,0,110.1,13.38,9.90,288.0
"2010-11-28 00:14:30",374730,2.536,325.3,1.687,0.192,8.81,103.8406,9.11,9.98,13.47,0,110.1,13.39,9.89,287.3
"2010-11-28 00:15:00",374731,3.044,315.9,7.528,0.826,9.77,103.8367,9.1,9.98,13.55,0,110.1,13.36,9.88,277.9
"2010-11-28 00:15:30",374732,4.904,323.5,9.03,1.24,13.61,103.857,9.15,10.2,13.83,0,110.1,13.36,9.93,285.5
"2010-11-28 00:16:00",374733,5.385,327,4.826,0.945,14.4,103.8618,9.16,10.32,13.94,0,110.1,13.36,9.94,289.0
"2010-11-28 00:16:30",374734,5.223,316.4,7.209,1.152,13.09,103.8728,9.19,10.29,13.86,0,110.1,13.36,9.97,278.4
"2010-11-28 00:17:00",374735,3.053,305.5,2.342,0.098,9.17,103.8906,9.23,10.02,13.61,0,110.1,13.38,10.02,267.5
"2010-11-28 00:17:30",374736,3.659,307,1.976,0.271,8.71,103.8957,9.25,10.04,13.6,0,110.1,13.38,10.03,269.0
"2010-11-28 00:18:00",374737,3.879,307.7,2.609,0.184,8.93,103.8959,9.25,10.07,13.61,0,110.1,13.38,10.03,269.7
"2010-11-28 00:18:30",374738,3.401,306.7,3.865,0.473,9.58,103.8962,9.25,10.08,13.58,0,110.1,13.35,10.03,268.7
"2010-11-28 00:19:00",374739,5.143,312.5,7.414,1.293,12.89,103.8959,9.25,10.22,13.7,0,110.1,13.35,10.03,274.5
"2010-11-28 00:19:30",374740,5.615,316.6,6.197,1.132,13.64,103.8957,9.25,10.32,13.8,0,110.1,13.35,10.03,278.6
"2010-11-28 00:20:00",374741,5.851,314.2,5.967,0.975,14.25,103.8957,9.25,10.43,13.86,0,110.1,13.35,10.03,276.2
"2010-11-28 00:20:30",374742,4.712,308.2,6.716,1.379,11.5,103.8957,9.25,10.2,13.63,0,110.1,13.35,10.03,270.2
"2010-11-28 00:21:00",374743,3.225,302.9,2.67,0.164,8.73,103.8957,9.25,10.07,13.5,0,110.1,13.38,10.03,264.9
"2010-11-28 00:21:30",374744,3.29,301.1,2.399,0.188,8.67,103.8934,9.24,10.07,13.51,0,110.1,13.39,10.03,263.1
"2010-11-28 00:22:00",374745,3.252,301.1,2.274,0.118,8.99,103.888,9.23,10.07,13.51,0,110.1,13.39,10.01,263.1
"2010-11-28 00:22:30",374746,3.239,297.6,3.783,0.539,9.98,103.8787,9.2,10.19,13.65,0,110.1,13.4,9.99,259.6
"2010-11-28 00:23:00",374747,5.081,308.5,5.856,1.164,13.36,103.8649,9.17,10.27,13.74,0,110.1,13.36,9.95,270.5
"2010-11-28 00:23:30",374748,5.387,309.9,5.272,1.089,13.42,103.8624,9.16,10.29,13.78,0,110.1,13.36,9.95,271.9
"2010-11-28 00:24:00",374749,4.97,306.1,6.536,1.252,13.13,103.8624,9.16,10.32,13.79,0,110.1,13.36,9.95,268.1
"2010-11-28 00:24:30",374750,4.052,300.4,6.627,1.273,10.75,103.8659,9.17,10.2,13.69,0,110.1,13.36,9.96,262.4
"2010-11-28 00:25:00",374751,3.11,294.1,1.312,0.066,8.57,103.8657,9.17,10.04,13.53,0,110.1,13.4,9.95,256.1
"2010-11-28 00:25:30",374752,2.649,294.4,2.128,0.209,8.51,103.8561,9.15,10.02,13.54,0,110.1,13.4,9.93,256.4
"2010-11-28 00:26:00",374753,2.394,293.7,2.979,0.133,8.82,103.8534,9.14,10.01,13.55,0,110,13.4,9.92,255.7
"2010-11-28 00:26:30",374754,4.108,296.9,6.537,1.357,11.64,103.8419,9.11,10.13,13.68,0,110,13.37,9.89,258.9
"2010-11-28 00:27:00",374755,3.891,297.1,5.622,1.408,11.55,103.842,9.11,10.15,13.7,0,110.1,13.37,9.89,259.1
"2010-11-28 00:27:30",374756,4.217,295.4,7.422,1.255,12.12,103.8467,9.12,10.26,13.8,0,110.1,13.37,9.91,257.4
"2010-11-28 00:28:00",374757,4.752,297,6.927,1.149,13.4,103.8502,9.13,10.3,13.84,0,110.1,13.37,9.91,259.0
"2010-11-28 00:28:30",374758,3.319,292.1,6.159,0.885,10.06,103.8534,9.14,10.15,13.74,0,110.1,13.37,9.92,254.1
"2010-11-28 00:29:00",374759,2.739,286.3,1.752,0.135,8.59,103.8575,9.15,9.97,13.57,0,110.1,13.41,9.93,248.3
"2010-11-28 00:29:30",374760,2.97,294.5,4.328,0.232,8.45,103.8596,9.15,9.95,13.61,0,110.1,13.4,9.94,256.5
"2010-11-28 00:30:00",374761,2.835,294.1,4.205,0.212,9.06,103.8593,9.15,10.05,13.71,0,110.1,13.41,9.94,256.1
"2010-11-28 00:30:30",374762,4.092,297,7.216,1.06,11.39,103.861,9.16,10.02,13.7,0,110,13.37,9.94,259.0
"2010-11-28 00:31:00",374763,3.57,293.8,8.08,1.144,11.14,103.8616,9.16,10.23,13.99,0,110,13.37,9.94,255.8
"2010-11-28 00:31:30",374764,4.488,301.2,6.737,1.271,12.69,103.8492,9.13,10.22,13.84,0,110,13.37,9.91,263.2
"2010-11-28 00:32:00",374765,4.548,302.8,5.466,0.946,13.62,103.8286,9.08,10.22,13.77,0,110,13.37,9.86,264.8
"2010-11-28 00:32:30",374766,2.819,299.7,6.776,1.211,10.56,103.8233,9.06,10.08,13.62,0,110,13.37,9.85,261.7
"2010-11-28 00:33:00",374767,1.242,261.9,12.51,0.113,7.639,103.7781,8.95,9.88,12.91,0,110,13.41,9.73,223.9
"2010-11-28 00:33:30",374768,1.249,251.8,16.87,0.198,7.654,103.71,8.77,9.82,12.52,0,110,13.41,9.56,213.8
"2010-11-28 00:34:00",374769,1.039,275.2,10.43,0.201,8.37,103.6928,8.73,9.74,13.09,0,110,13.41,9.51,237.2
"2010-11-28 00:34:30",374770,1.375,284.7,3.432,0.208,8.63,103.6911,8.72,9.77,13.41,0,110,13.4,9.51,246.7
"2010-11-28 00:35:00",374771,2.988,287.9,7.581,1.312,11.38,103.6934,8.73,9.74,13.56,0,110,13.37,9.51,249.9
"2010-11-28 00:35:30",374772,2.045,281.5,4.442,0.237,9.18,103.7044,8.76,9.71,13.74,0,110,13.41,9.54,243.5
"2010-11-28 00:36:00",374773,3.577,297.7,8.66,1.273,12.37,103.7275,8.82,9.94,13.93,0,110,13.37,9.60,259.7
"2010-11-28 00:36:30",374774,3.339,301.4,7.271,1.334,11.37,103.7275,8.82,9.86,13.75,0,110,13.37,9.60,263.4
"2010-11-28 00:37:00",374775,3.1,298.4,5.77,1.239,10.1,103.7275,8.82,9.72,13.61,0,110,13.37,9.60,260.4
"2010-11-28 00:37:30",374776,3.311,298.7,7.193,1.384,10.41,103.7275,8.82,9.79,13.6,0,110,13.37,9.60,260.7
"2010-11-28 00:38:00",374777,1.919,286.4,3.05,0.048,8.28,103.7275,8.82,9.67,13.47,0,110,13.41,9.60,248.4
"2010-11-28 00:38:30",374778,2.214,282.8,4.562,1.003,9.24,103.7275,8.82,9.67,13.48,0,110,13.38,9.60,244.8
"2010-11-28 00:39:00",374779,2.304,280.7,7.116,1.055,10.41,103.7275,8.82,9.85,13.66,0,110,13.38,9.60,242.7
"2010-11-28 00:39:30",374780,2.209,279.4,5.773,1.162,9.54,103.7275,8.82,9.67,13.54,0,110,13.38,9.60,241.4
"2010-11-28 00:40:00",374781,1.71,295.9,7.368,0.729,9.1,103.7287,8.82,9.76,13.59,0,110,13.39,9.60,257.9
"2010-11-28 00:40:30",374782,3.639,304.5,7.416,1.073,12.7,103.7275,8.82,9.93,13.68,0,110,13.39,9.60,266.5
"2010-11-28 00:41:00",374783,2.548,291.2,7.583,1.247,11.22,103.7275,8.82,9.81,13.54,0,110,13.39,9.60,253.2
"2010-11-28 00:41:30",374784,1.934,294.1,10.4,1.106,9.15,103.7275,8.82,9.67,13.48,0,110,13.39,9.60,256.1
"2010-11-28 00:42:00",374785,2.34,301.6,6.887,1.219,10.07,103.7275,8.82,9.82,13.65,0,110,13.39,9.60,263.6
"2010-11-28 00:42:30",374786,0.975,281.5,7.196,0.237,8.1,103.7177,8.79,9.67,13.38,0,110,13.39,9.57,243.5
"2010-11-28 00:43:00",374787,0.266,245.7,10.77,0.137,7.848,103.6781,8.69,9.64,12.79,0,110,13.42,9.47,207.7
"2010-11-28 00:43:30",374788,0.808,219.3,10.55,1.169,8.85,103.6315,8.57,9.58,12.41,0,110,13.39,9.35,181.3
"2010-11-28 00:44:00",374789,1.331,226,7.767,1.408,9.97,103.5785,8.44,9.67,12.5,0,110,13.39,9.22,188.0
"2010-11-28 00:44:30",374790,0.218,213.9,1.523,0.03,7.131,103.5124,8.27,9.42,12.45,0,110,13.42,9.05,175.9
"2010-11-28 00:45:00",374791,0.204,208.5,4.283,0.025,7.23,103.4477,8.1,9.3,12.53,0,110,13.43,8.88,170.5
"2010-11-28 00:45:30",374792,0.157,193.7,7.619,0.068,7.815,103.4203,8.03,9.21,12.53,0,110,13.43,8.81,155.7
"2010-11-28 00:46:00",374793,1.417,238.6,36.23,1.247,10.99,103.4086,8,9.33,12.88,0,110,13.4,8.78,200.6
"2010-11-28 00:46:30",374794,2.211,305.5,11.83,1.179,11.61,103.4171,8.02,9.28,13.36,0,110,13.4,8.80,267.5
"2010-11-28 00:47:00",374795,0.627,297.3,4.403,0.101,8.39,103.461,8.14,9.06,13.58,0,110,13.43,8.92,259.3
"2010-11-28 00:47:30",374796,0.659,292.2,3.917,0.104,8.1,103.5153,8.27,9.08,13.75,0,110,13.43,9.06,254.2
"2010-11-28 00:48:00",374797,0.683,299.4,3.811,0.611,8.82,103.5491,8.36,9.26,13.82,0,110,13.4,9.14,261.4
"2010-11-28 00:48:30",374798,0.993,286.6,22.15,1.268,9.47,103.581,8.44,9.19,13.58,0,110,13.4,9.22,248.6
"2010-11-28 00:49:00",374799,0.524,240.1,8.45,0.134,7.937,103.5856,8.45,9.2,13.37,0,110,13.44,9.24,202.1
"2010-11-28 00:49:30",374800,0.614,247.3,14.15,0.229,8.33,103.5871,8.46,9.32,13.42,0,110,13.43,9.24,209.3
"2010-11-28 00:50:00",374801,1.981,257.4,10.26,1.299,10.46,103.5885,8.46,9.3,13.48,0,110,13.4,9.24,219.4
"2010-11-28 00:50:30",374802,0.919,264.5,3.103,0.117,8.66,103.6147,8.53,9.26,13.55,0,110,13.43,9.31,226.5
"2010-11-28 00:51:00",374803,0.97,252.7,5.067,0.114,8.5,103.6274,8.56,9.27,13.61,0,110,13.43,9.34,214.7
"2010-11-28 00:51:30",374804,2.085,250.3,7.729,1.247,11.33,103.6432,8.6,9.55,13.88,0,110,13.4,9.38,212.3
"2010-11-28 00:52:00",374805,2.363,256.8,8.8,1.324,12.14,103.659,8.64,9.62,13.84,0,110,13.4,9.42,218.8
"2010-11-28 00:52:30",374806,1.142,239.4,14.11,1.032,9.33,103.661,8.65,9.38,13.52,0,110,13.4,9.43,201.4
"2010-11-28 00:53:00",374807,0.733,258.8,10.15,0.138,8.25,103.661,8.65,9.37,13.66,0,110,13.43,9.43,220.8
"2010-11-28 00:53:30",374808,1.118,254.2,6.412,0.076,8.32,103.661,8.65,9.38,13.69,0,110,13.43,9.43,216.2
"2010-11-28 00:54:00",374809,2.289,266.5,7.848,1.304,10.61,103.661,8.65,9.53,13.68,0,110,13.4,9.43,228.5
"2010-11-28 00:54:30",374810,0.748,267.1,4.354,0.097,8.8,103.661,8.65,9.42,13.6,0,110,13.44,9.43,229.1
"2010-11-28 00:55:00",374811,1.946,249.2,16.39,1.336,10.85,103.661,8.65,9.59,13.77,0,110,13.4,9.43,211.2
"2010-11-28 00:55:30",374812,0.735,215.9,10.79,0.178,8.08,103.6503,8.62,9.43,13.28,0,110,13.44,9.40,177.9
"2010-11-28 00:56:00",374813,0.773,224,3.243,0.093,8.13,103.6308,8.57,9.43,13.24,0,110,13.44,9.35,186.0
"2010-11-28 00:56:30",374814,2.152,230.9,10.87,1.355,10.49,103.6274,8.56,9.49,13.3,0,110,13.41,9.34,192.9
"2010-11-28 00:57:00",374815,2.637,234.2,6.875,1.345,11.65,103.6271,8.56,9.63,13.34,0,110,13.41,9.34,196.2
"2010-11-28 00:57:30",374816,2.082,254.3,9.94,1.197,11.11,103.6184,8.54,9.62,13.41,0,110,13.41,9.32,216.3
"2010-11-28 00:58:00",374817,1.129,240.7,8.06,0.178,7.906,103.5946,8.48,9.38,13.34,0,110,13.45,9.26,202.7
"2010-11-28 00:58:30",374818,0.987,244.4,13.59,0.25,7.965,103.5932,8.47,9.35,13.27,0,110,13.45,9.26,206.4
"2010-11-28 00:59:00",374819,0.982,273.1,9.26,0.536,8.42,103.5904,8.47,9.39,13.49,0,110,13.41,9.25,235.1
"2010-11-28 00:59:30",374820,2.649,293.2,7.971,1.268,12.09,103.5797,8.44,9.58,13.82,0,110,13.41,9.22,255.2
"2010-11-28 01:00:00",374821,1.716,275.7,6.86,0.788,8.85,103.5743,8.43,9.41,14.01,0,110,13.41,9.21,237.7
"2010-11-28 01:00:30",374822,1.896,281.9,5.532,0.833,9.13,103.5611,8.39,9.37,14.01,0,110,13.41,9.17,243.9
"2010-11-28 01:01:00",374823,1.749,276,3.812,0.112,8.24,103.5611,8.39,9.38,14.31,0,110,13.45,9.17,238.0
"2010-11-28 01:01:30",374824,3.686,283.6,6.852,1.218,12.24,103.5649,8.4,9.44,14.42,0,110,13.41,9.18,245.6
"2010-11-28 01:02:00",374825,3.904,279.2,7.871,1.2,12.11,103.5508,8.37,9.42,14.46,0,110,13.41,9.15,241.2
"2010-11-28 01:02:30",374826,2.084,276.4,3.183,0.577,8.35,103.5336,8.32,9.22,14.34,0,110,13.41,9.10,238.4
"2010-11-28 01:03:00",374827,1.543,271.5,4.56,0.248,8.06,103.5359,8.33,9.22,14.23,0,110,13.45,9.11,233.5
"2010-11-28 01:03:30",374828,2.525,276.8,13.55,1.395,10.21,103.5318,8.32,9.24,14.09,0,110,13.41,9.10,238.8
"2010-11-28 01:04:00",374829,3.253,282.2,9.39,1.28,11.09,103.5101,8.26,9.42,14.24,0,110,13.42,9.04,244.2
"2010-11-28 01:04:30",374830,2.264,278.8,7.291,1.174,9.29,103.5088,8.26,9.23,14.3,0,110,13.41,9.04,240.8
"2010-11-28 01:05:00",374831,1.614,277.7,3.717,0.085,7.888,103.5114,8.26,9.14,14.19,0,110,13.45,9.05,239.7
"2010-11-28 01:05:30",374832,1.46,266.6,6.4,0.161,8.18,103.5114,8.26,9.22,14.31,0,110,13.45,9.05,228.6
"2010-11-28 01:06:00",374833,3.09,269.1,7.267,1.112,12.03,103.5028,8.24,9.3,14.22,0,109.9,13.42,9.02,231.1
"2010-11-28 01:06:30",374834,2.056,277.8,9.36,1.047,10.29,103.4882,8.21,9.32,14.32,0,109.9,13.42,8.99,239.8
"2010-11-28 01:07:00",374835,2.057,277.6,8.01,1.007,9.41,103.4886,8.21,9.07,14.42,0,109.9,13.42,8.99,239.6
"2010-11-28 01:07:30",374836,1.56,270.7,4.869,0.159,8.03,103.4886,8.21,9.07,14.94,0,109.9,13.45,8.99,232.7
"2010-11-28 01:08:00",374837,1.672,280.6,8.34,0.122,8.49,103.4895,8.21,9.19,15.2,0,109.9,13.45,8.99,242.6
"2010-11-28 01:08:30",374838,3.676,305.4,11.96,1.284,12.07,103.4918,8.21,9.33,15.56,0,110,13.42,9.00,267.4
"2010-11-28 01:09:00",374839,2.406,306.5,11.58,1.222,9.65,103.4921,8.22,9.15,15.5,0,110,13.42,9.00,268.5
"2010-11-28 01:09:30",374840,1.666,292.9,3.055,0.483,8.17,103.4927,8.22,9.06,15.59,0,110,13.42,9.00,254.9
"2010-11-28 01:10:00",374841,2.202,296.9,6.095,1.132,9.17,103.4927,8.22,9.17,15.67,0,110,13.42,9.00,258.9
"2010-11-28 01:10:30",374842,3.387,301.4,6.341,1.182,11.16,103.4927,8.22,9.22,15.48,0,110,13.42,9.00,263.4
"2010-11-28 01:11:00",374843,2.386,288.1,3.991,1.069,9.75,103.4927,8.22,9.22,15.65,0,110,13.42,9.00,250.1
"2010-11-28 01:11:30",374844,2.272,281.8,5.231,1.317,8.78,103.4927,8.22,9.03,15.4,0,110,13.42,9.00,243.8
"2010-11-28 01:12:00",374845,1.33,269.4,3.554,0.057,8.01,103.4927,8.22,9.04,15.11,0,110,13.46,9.00,231.4
"2010-11-28 01:12:30",374846,1.595,267,4.703,0.704,8.4,103.4817,8.19,9.12,14.6,0,110,13.43,8.97,229.0
"2010-11-28 01:13:00",374847,3.237,264.7,4.772,1.309,11.42,103.4667,8.15,9.17,14.33,0,110,13.43,8.93,226.7
"2010-11-28 01:13:30",374848,2.811,268.9,14.66,1.59,10.15,103.4588,8.13,9.16,14.75,0,109.9,13.43,8.91,230.9
"2010-11-28 01:14:00",374849,2.447,274.9,4.669,0.34,8.11,103.4588,8.13,9.04,15.74,0,110,13.47,8.91,236.9
"2010-11-28 01:14:30",374850,2.969,290.9,12,1.178,10.01,103.4588,8.13,9.07,15.85,0,109.9,13.43,8.91,252.9
"2010-11-28 01:15:00",374851,4.466,298.7,7.556,1.318,11.61,103.4563,8.12,9.14,15.77,0,109.9,13.43,8.90,260.7
"2010-11-28 01:15:30",374852,2.586,275.3,6.121,0.446,8.63,103.4294,8.06,9.07,15.43,0,109.9,13.47,8.84,237.3
"2010-11-28 01:16:00",374853,2.437,276.6,3.896,0.48,8.02,103.4071,7.998,8.95,15.2,0,109.9,13.43,8.78,238.6
"2010-11-28 01:16:30",374854,3.893,289.8,6.876,1.201,10.3,103.391,7.957,8.95,15.52,0,110,13.43,8.74,251.8
"2010-11-28 01:17:00",374855,3.045,284,8.31,1.047,8.74,103.3848,7.941,8.93,16.08,0,110,13.43,8.72,246.0
"2010-11-28 01:17:30",374856,3.605,289.3,7.33,1.235,10.02,103.3692,7.901,8.97,16.2,0,110,13.43,8.68,251.3
"2010-11-28 01:18:00",374857,3.97,291.8,6.353,1.347,10.23,103.3576,7.872,8.95,16.14,0,110,13.43,8.65,253.8
"2010-11-28 01:18:30",374858,3.08,282.5,7.443,1.27,9.56,103.3571,7.87,8.95,16.07,0,110,13.43,8.65,244.5
"2010-11-28 01:19:00",374859,4.481,293.4,4.683,1.124,10.31,103.3511,7.855,8.83,16.23,0,110,13.43,8.63,255.4
"2010-11-28 01:19:30",374860,3.975,290.7,11.41,1.21,9.61,103.3407,7.828,8.91,16.57,0,110,13.43,8.61,252.7
"2010-11-28 01:20:00",374861,3.989,297.6,12.56,1.536,10.21,103.3297,7.8,8.84,16.72,0,109.9,13.43,8.58,259.6
"2010-11-28 01:20:30",374862,2.558,272.8,6.4,0.788,8.67,103.3234,7.784,8.86,16.23,0,109.9,13.43,8.56,234.8
"2010-11-28 01:21:00",374863,3.452,264.9,6.12,1.178,9.58,103.3232,7.783,8.84,15.96,0,109.9,13.43,8.56,226.9
"2010-11-28 01:21:30",374864,3.218,265.2,6.801,1.221,9.68,103.3232,7.783,8.86,15.68,0,109.9,13.43,8.56,227.2
"2010-11-28 01:22:00",374865,3.046,256.6,9.95,1.239,9.23,103.3198,7.775,8.7,15.25,0,109.9,13.43,8.55,218.6
"2010-11-28 01:22:30",374866,3.186,261.2,6.975,1.371,9.95,103.2974,7.718,8.72,15.04,0,109.9,13.43,8.50,223.2
"2010-11-28 01:23:00",374867,2.962,259.3,5.577,1.345,10.36,103.2893,7.697,8.79,14.98,0,109.9,13.43,8.48,221.3
"2010-11-28 01:23:30",374868,2.013,242.3,3.362,0.503,7.223,103.276,7.663,8.58,14.53,0,109.9,13.43,8.44,204.3
"2010-11-28 01:24:00",374869,3.382,247.7,5.705,1.393,9.21,103.2305,7.547,8.67,15.23,0,109.9,13.43,8.33,209.7
"2010-11-28 01:24:30",374870,2.258,240.8,2.034,0.486,7.274,103.1838,7.427,8.43,15.35,0,109.9,13.43,8.21,202.8
"2010-11-28 01:25:00",374871,2.147,244.6,5.076,0.486,8.32,103.1782,7.413,8.52,15.61,0,109.9,13.45,8.19,206.6
"2010-11-28 01:25:30",374872,3.918,252.7,6.932,1.135,11.23,103.1785,7.414,8.58,16.07,0,109.9,13.43,8.19,214.7
"2010-11-28 01:26:00",374873,3.157,243.3,7.167,1.321,9.46,103.1595,7.365,8.42,15.9,0,109.9,13.44,8.14,205.3
"2010-11-28 01:26:30",374874,2.556,243.5,7.249,1.014,8.59,103.1426,7.322,8.45,16.07,0,109.9,13.44,8.10,205.5
"2010-11-28 01:27:00",374875,2.663,248.2,5.028,1.198,8.15,103.1036,7.222,8.24,16.31,0,109.9,13.44,8.00,210.2
"2010-11-28 01:27:30",374876,1.88,246.4,3.778,0.066,7.398,103.0643,7.122,8.36,16.9,0,109.9,13.47,7.90,208.4
"2010-11-28 01:28:00",374877,3.414,245.8,7.796,1.298,9.09,103.0211,7.011,8.12,17.01,0,109.9,13.44,7.79,207.8
"2010-11-28 01:28:30",374878,1.728,245.4,4.926,0.116,7.417,103.042,7.065,8.1,17.57,0,109.9,13.48,7.84,207.4
"2010-11-28 01:29:00",374879,2.933,251.9,9.15,1.36,10.01,103.0697,7.136,8.28,17.88,0,109.9,13.44,7.91,213.9
"2010-11-28 01:29:30",374880,3.511,272.2,12.29,1.461,10.75,103.0957,7.202,8.31,17.9,0,109.9,13.44,7.98,234.2
"2010-11-28 01:30:00",374881,1.95,265.2,10.87,0.415,8.06,103.1257,7.279,8.19,17.82,0,109.9,13.48,8.06,227.2
"2010-11-28 01:30:30",374882,2.151,243.6,4.423,0.262,7.177,103.1302,7.29,8.18,17.73,0,109.9,13.44,8.07,205.6
"2010-11-28 01:31:00",374883,3.455,261.7,19.34,1.429,9.59,103.1214,7.268,8.27,17.88,0,109.9,13.44,8.05,223.7
"2010-11-28 01:31:30",374884,3.738,323.9,7.556,1.868,9.59,103.1248,7.277,8.21,17.92,0,109.9,13.44,8.05,285.9
"2010-11-28 01:32:00",374885,3.654,296.1,14.91,1.553,10.17,103.1551,7.354,8.32,18,0,109.9,13.45,8.13,258.1
"2010-11-28 01:32:30",374886,2.679,292.5,7.797,0.413,7.839,103.1803,7.418,8.26,17.89,0,109.9,13.48,8.20,254.5
"2010-11-28 01:33:00",374887,4.511,303.9,9.68,1.344,11.11,103.1976,7.463,8.49,18.06,0,109.9,13.45,8.24,265.9
"2010-11-28 01:33:30",374888,3.337,261.9,6.559,1.178,9.74,103.2034,7.477,8.51,18.18,0,109.9,13.45,8.26,223.9
"2010-11-28 01:34:00",374889,2.976,268.2,8.7,0.794,9.04,103.1974,7.462,8.43,18.27,0,109.9,13.45,8.24,230.2
"2010-11-28 01:34:30",374890,3.729,262.9,8.61,1.229,9.25,103.1816,7.422,8.31,18.23,0,109.9,13.44,8.20,224.9
"2010-11-28 01:35:00",374891,3.437,253.8,6.24,1.2,8.56,103.1585,7.363,8.45,18.56,0,109.9,13.45,8.14,215.8
"2010-11-28 01:35:30",374892,4.071,252.9,5.377,1.19,9.42,103.1274,7.283,8.35,18.66,0,109.9,13.45,8.06,214.9
"2010-11-28 01:36:00",374893,2.777,244.4,2.514,0.101,7.055,103.0915,7.191,8.13,18.65,0,109.9,13.48,7.97,206.4
"2010-11-28 01:36:30",374894,4.41,254.1,5.828,1.207,10.45,103.069,7.134,8.26,18.96,0,109.9,13.45,7.91,216.1
"2010-11-28 01:37:00",374895,4.516,235.1,8.86,1.313,9.59,103.0433,7.068,8.25,19.39,0,109.9,13.45,7.85,197.1
"2010-11-28 01:37:30",374896,4.434,224.5,6.466,1.268,7.965,102.9698,6.88,7.988,20.88,0,109.9,13.45,7.66,186.5
"2010-11-28 01:38:00",374897,4.328,226.2,6.226,1.205,8.46,102.8889,6.674,7.959,22.07,0,109.9,13.45,7.45,188.2
"2010-11-28 01:38:30",374898,4.903,225.5,6.03,1.154,9.23,102.8188,6.495,7.77,22.34,0,109.9,13.44,7.27,187.5
"2010-11-28 01:39:00",374899,3.366,215.4,2.801,0.517,6.942,102.7699,6.37,7.634,22.58,0,109.9,13.45,7.14,177.4
"2010-11-28 01:39:30",374900,4.868,219.7,6.786,1.291,9.25,102.7349,6.28,7.561,22.91,0,109.9,13.44,7.05,181.7
"2010-11-28 01:40:00",374901,4.863,222.4,6.534,1.267,9.74,102.7004,6.192,7.589,23.26,0,109.9,13.44,6.97,184.4
"2010-11-28 01:40:30",374902,4.195,216.6,5.374,1.169,7.801,102.6824,6.146,7.342,23.3,0,109.9,13.44,6.92,178.6
"2010-11-28 01:41:00",374903,3.635,215.1,1.976,0.144,6.871,102.6632,6.097,7.275,23.35,0,109.9,13.48,6.87,177.1
"2010-11-28 01:41:30",374904,5.93,225.9,6.084,1.074,9.88,102.6638,6.099,7.253,23.25,0,109.9,13.44,6.87,187.9
"2010-11-28 01:42:00",374905,5.718,223.7,6.709,1.244,10.06,102.6528,6.071,7.325,23.53,0,109.9,13.44,6.84,185.7
"2010-11-28 01:42:30",374906,6.216,224.9,5.391,0.984,10.38,102.6512,6.066,7.131,23.49,0,109.9,13.44,6.84,186.9
"2010-11-28 01:43:00",374907,5.545,223.9,6.645,1.306,9.92,102.6577,6.083,7.294,23.65,0,109.9,13.44,6.86,185.9
"2010-11-28 01:43:30",374908,5.51,222,6.594,1.309,9.39,102.6697,6.114,7.176,23.29,0,109.9,13.44,6.89,184.0
"2010-11-28 01:44:00",374909,4.923,216.1,5.343,1.127,8.52,102.6725,6.121,7.149,23.08,0,109.9,13.45,6.89,178.1
"2010-11-28 01:44:30",374910,5.234,216.8,6.109,1.275,8.99,102.6796,6.139,7.102,22.86,0,109.9,13.45,6.91,178.8
"2010-11-28 01:45:00",374911,5.919,220,6.296,1.258,10.75,102.7008,6.193,7.24,22.89,0,109.9,13.45,6.97,182.0
"2010-11-28 01:45:30",374912,4.81,213.5,6.102,1.067,8.98,102.7085,6.213,7.321,23.05,0,109.9,13.45,6.99,175.5
"2010-11-28 01:46:00",374913,6.238,218.8,5.624,1.221,10.46,102.7094,6.215,7.285,23.15,0,109.9,13.45,6.99,180.8
"2010-11-28 01:46:30",374914,5.981,221.2,5.975,1.2,10.34,102.7119,6.222,7.244,22.94,0,109.9,13.45,7.00,183.2
"2010-11-28 01:47:00",374915,4.293,212.3,1.564,0.175,6.97,102.738,6.288,7.063,22.55,0,109.9,13.48,7.06,174.3
"2010-11-28 01:47:30",374916,5.519,218.8,6.718,1.355,9.44,102.7476,6.313,7.283,22.66,0,109.9,13.45,7.09,180.8
"2010-11-28 01:48:00",374917,5.729,217.1,7.161,1.27,10.68,102.7487,6.316,7.367,22.75,0,109.9,13.45,7.09,179.1
"2010-11-28 01:48:30",374918,6.127,224.8,5.251,1.157,11.13,102.7719,6.375,7.345,22.53,0,109.9,13.45,7.15,186.8
"2010-11-28 01:49:00",374919,5.85,220.8,5.61,1.267,10.38,102.8075,6.466,7.403,22.19,0,109.9,13.45,7.24,182.8
"2010-11-28 01:49:30",374920,5.968,221.6,6.115,1.188,10.5,102.8296,6.522,7.466,22.13,0,109.9,13.45,7.30,183.6
"2010-11-28 01:50:00",374921,4.093,211.4,1.532,0.221,7.022,102.8355,6.537,7.256,21.78,0,109.9,13.48,7.31,173.4
"2010-11-28 01:50:30",374922,4.326,210.8,2.307,0.112,7.467,102.848,6.569,7.303,21.39,0,109.9,13.49,7.34,172.8
"2010-11-28 01:51:00",374923,5.814,219.3,6.455,1.31,10.52,102.8751,6.638,7.591,21.48,0,109.9,13.45,7.41,181.3